Preview of NWS' New Version of Forecast
This preview is not operational and should not be used for support decisions.

Regional Weather Roundup (RWR)

Issued by National Weather Service (NWS)

                            
000
ASUS43 KTOP 211259
RWRKS 

WEATHER ROUNDUP FOR KANSAS
NATIONAL WEATHER SERVICE GOODLAND KS
800 AM CDT WED AUG 21 2019

NOTE:  "FAIR" INDICATES FEW OR NO CLOUDS BELOW 12,000 FEET WITH NO
SIGNIFICANT WEATHER AND/OR OBSTRUCTIONS TO VISIBILITY.

KSZ001>006-013>018-027>032-041>047-211400-
NORTHWEST KANSAS
  
CITY           SKY/WX    TMP DP  RH WIND       PRES   REMARKS
GOODLAND         N/A    N/A N/A N/A MISG      30.15R                  
HAYS           LGT RAIN  69  66  90 N23       29.84R                  
HILL CITY      TSTM      67  65  93 E12       30.13F FOG              
RUSSELL        TSTM      69  64  84 W12G23    30.09R                  
$$

KSZ061>065-074>080-084>089-211400-
SOUTHWEST KANSAS
  
CITY           SKY/WX    TMP DP  RH WIND       PRES   REMARKS
DODGE CITY     SUNNY     77  61  57 S14       30.00S                  
GARDEN CITY    SUNNY     70  64  81 S8        30.00F                  
GREAT BEND     CLOUDY    76  61  59 NW18G30   30.02R                  
LIBERAL        CLEAR     79  61  53 S12       30.04S                  
$$

KSZ066>073-081>083-090>101-211400-
SOUTHEAST KANSAS
  
CITY           SKY/WX    TMP DP  RH WIND       PRES   REMARKS
CHANUTE        SUNNY     79  73  82 N6        30.04R                  
COFFEYVILLE    SUNNY     78  74  87 S8        30.00R                  
HUTCHINSON     SUNNY     75  65  70 CALM      29.99S                  
MEDICINE LODGE   N/A     78  63  59 SE7       29.99S                  
NEWTON         MOSUNNY   75  70  84 NE8       30.04R                  
PARSONS        PTSUNNY   78  76  93 CALM      30.03R                  
WICHITA INTL   PTSUNNY   80  70  71 CALM      30.00R                  
WICHITA JABRA  SUNNY     80  71  74 S3        30.00S                  
WICHITA MCCONL PTSUNNY   79  68  69 SE6       30.01R                  
WINFIELD       SUNNY     76  72  87 SE3       30.03R                  
$$

KSZ007>012-019>026-033>040-048>060-102>105-211400-
NORTHEAST KANSAS
  
CITY           SKY/WX    TMP DP  RH WIND       PRES   REMARKS
CONCORDIA      MOSUNNY   71  66  84 E7        30.02S                  
EMPORIA        TSTM      68  67  96 N7        30.07R                  
LAWRENCE       MOSUNNY   73  66  78 W8        30.06R                  
MANHATTAN      SUNNY     71  66  84 VRB3      30.01F                  
OLATHE IND     SUNNY     72  68  87 N9        30.07R                  
OLATHE EXE     PTSUNNY   72  68  87 NW12      30.05S THUNDER          
SALINA         PTSUNNY   73  67  81 E12G23    30.04R                  
TOPEKA BILLARD TSTM      73  63  70 VRB6      30.05R                  
TOPEKA FORBES  TSTM      73  64  73 W8G24     30.07R                  
$$